Terminal Aerodrome Forecast
Issued by NWS

Home | Current Version | Previous Version | Text Only | Print | Product List | Glossary On
Versions: 1 2 3 4 5 6 7 8 9 10 11 12 13 14 15
000
FTUS41 KBTV 290615 AAA
TAFMSS
TAF AMD
KMSS 290615Z 2906/3006 29004KT P6SM SKC
      TEMPO 2906/2910 1/2SM FG OVC001
     FM291200 VRB03KT P6SM SKC
     FM291700 21006KT P6SM FEW060=

USA.gov is the U.S. government's official web portal to all federal, state and local government web resources and services.